TimeCEST,TemperatureF,Dew PointF,Humidity,Sea Level PressureIn,VisibilityMPH,Wind Direction,Wind SpeedMPH,Gust SpeedMPH,PrecipitationIn,Events,Conditions,WindDirDegrees,DateUTC
12:55 AM,30.2,28.4,93,30.15,0.1,Variable,1.2,-,N/A,Fog-Snow,Light Snow,0,2013-08-26 22:55:00
1:55 AM,30.2,30.2,100,30.15,0.3,SE,8.1,-,N/A,Fog,Light Freezing Fog,140,2013-08-26 23:55:00
2:00 AM,30,30,98,,0,SE,8.1,,,Fog,Heavy Fog,140,2013-08-27 00:00:00
2:55 AM,28.4,28.4,100,30.12,6.2,ENE,8.1,-,N/A,,Partly Cloudy,60,2013-08-27 00:55:00
3:55 AM,28.4,28.4,100,30.12,-9999.0,East,8.1,-,N/A,,Clear,90,2013-08-27 01:55:00
4:55 AM,28.4,26.6,93,30.12,-9999.0,ENE,5.8,-,N/A,,Clear,70,2013-08-27 02:55:00
5:00 AM,28,27,95,,6,ENE,5.8,,,,Partly Cloudy,70,2013-08-27 03:00:00
5:55 AM,26.6,26.6,100,30.12,-9999.0,ENE,9.2,-,N/A,,Clear,70,2013-08-27 03:55:00
6:55 AM,26.6,26.6,100,30.12,6.2,ENE,5.8,-,N/A,,Partly Cloudy,70,2013-08-27 04:55:00
7:55 AM,26.6,23.0,86,30.12,6.2,East,9.2,-,N/A,,Scattered Clouds,80,2013-08-27 05:55:00
8:00 AM,27,24,83,,9,East,9.2,,,,Partly Cloudy,80,2013-08-27 06:00:00
8:55 AM,26.6,21.2,80,30.12,6.2,Variable,2.3,-,N/A,,Partly Cloudy,0,2013-08-27 06:55:00
9:55 AM,28.4,26.6,93,30.12,6.2,Calm,Calm,-,N/A,,Partly Cloudy,0,2013-08-27 07:55:00
10:55 AM,32.0,26.6,80,30.12,0.6,Variable,2.3,-,N/A,,Mostly Cloudy,0,2013-08-27 08:55:00
11:00 AM,32,26,70,,1,,2.3,,,,Mist,,2013-08-27 09:00:00
11:55 AM,33.8,24.8,70,30.12,0.6,Calm,Calm,-,N/A,,Mostly Cloudy,0,2013-08-27 09:55:00
12:55 PM,33.8,28.4,81,30.12,0.3,SSW,4.6,-,N/A,Fog-Snow,Light Snow,210,2013-08-27 10:55:00
1:55 PM,35.6,30.2,81,30.12,0.3,Variable,2.3,-,N/A,Fog-Snow,Light Snow,0,2013-08-27 11:55:00
2:00 PM,36,29,69,,0,,2.3,,,Snow,Light Snow,,2013-08-27 12:00:00
2:55 PM,35.6,28.4,75,30.12,0.5,SW,4.6,-,N/A,Fog-Snow,Light Snow,220,2013-08-27 12:55:00
3:55 PM,35.6,26.6,70,30.12,0.5,Variable,2.3,-,N/A,Fog-Snow,Light Snow,0,2013-08-27 13:55:00
4:00 PM,36,28,61,,0,,4.5,,,Snow,Light Snow,,2013-08-27 14:00:00
4:55 PM,37.4,30.2,75,30.12,0.1,Variable,3.5,-,N/A,Fog-Snow,Light Snow,0,2013-08-27 14:55:00
5:00 PM,37,31,69,,0,,3.5,,,Snow,Light Snow,,2013-08-27 15:00:00
5:55 PM,35.6,30.2,81,30.12,0.1,NE,10.4,-,N/A,Fog-Snow,Snow,50,2013-08-27 15:55:00
6:00 PM,35,30,75,,0,NE,20.1,,,Snow,Snow,50,2013-08-27 16:00:00
6:55 PM,30.2,28.4,93,30.12,0.1,ENE,12.7,-,N/A,Fog-Snow,Light Snow,60,2013-08-27 16:55:00
7:00 PM,29,28,97,,0,ENE,12.7,,,Snow,Light Snow,60,2013-08-27 17:00:00
7:55 PM,28.4,28.4,100,30.12,0.1,ENE,12.7,-,N/A,Fog-Snow,Light Snow,60,2013-08-27 17:55:00
8:00 PM,28,28,100,,0,ENE,12.7,,,Snow,Light Snow,60,2013-08-27 18:00:00
8:55 PM,28.4,28.4,100,30.12,0.1,NE,12.7,-,N/A,Fog-Snow,Light Snow,50,2013-08-27 18:55:00
9:00 PM,28,28,100,,0,NE,12.7,,,Snow,Light Snow,50,2013-08-27 19:00:00
9:55 PM,28.4,28.4,100,30.12,0.1,NE,13.8,-,N/A,Fog,Light Freezing Fog,50,2013-08-27 19:55:00
10:00 PM,28,28,98,,0,NE,13.8,,,Fog,Heavy Fog,50,2013-08-27 20:00:00
10:55 PM,26.6,26.6,100,30.12,0.1,NE,15.0,-,N/A,Fog,Light Freezing Fog,50,2013-08-27 20:55:00
11:00 PM,27,27,100,,0,NE,29.1,,,Fog,Heavy Fog,50,2013-08-27 21:00:00
11:55 PM,28.4,26.6,93,30.15,0.1,NE,13.8,-,N/A,Fog,Light Freezing Fog,50,2013-08-27 21:55:00